Location: Newark
(39.6867°N, 100.6772°W)
Time: 18:25:19
(UTC+00:00)

Vanguard 1 Rocket - Pass Details

Date: 29 October 2019
Orbit: 651 x 4225 km, 34.3° (Epoch: 12 November)

Event Time Altitude Azimuth Distance (km) Brightness Sun altitude
Rises 14:07:40 0° 224° (SW) 3,810 10.4 9.8°
Reaches altitude 10° 14:09:58 10° 216° (SW) 3,131 10.1 10.2°
Maximum altitude 14:17:24 43° 147° (SSE) 2,341 10.4 11.5°
Drops below altitude 10° 14:31:12 10° 83° (E) 5,716 12.4 13.8°
Sets 14:37:08 0° 79° (E) 7,302 12.8 14.8°
